Погода в Журавке

Россия / Воронежская область     50°02′47″N   40°35′44″E
темп.,
°C
ветер,
м/с
пор.,
м/с
влажн.,
%
обл.,
%
осадки,
мм/ч
давл.,
гПа
погр.,
м
8 марта, пн
пн800:00−1зюз91675100 0.0 10091037
03:00−1зюз8147599 0.0 1009894
06:00−1зюз71381100 0.1 1008798
09:000зюз9137496 0.1 1008825
12:00+2зюз91366100 0.0 10081268
15:00+3зюз81268100 0.1 10071272
18:00+1зюз51175100 0.1 1008594
21:00−1с2498100 1.1 1009265
9 марта, вт
вт900:00−2зсз1296100 1.5 1009141
03:00−2юз2498100 1.9 1010177
06:00−4сз369696 0.7 1010194
09:00−2зсз578297 0.8 1011754
12:00−1сз576992 0.4 10121179
15:00−1сз786576 0.6 10131240
18:00−4ссз577287 0.2 1015832
21:00−5сз587772 0.2 1018700
10 марта, ср
ср1000:00−7сз677467 0.0 1020822
03:00−8сз567383 0.1 1022847
06:00−9сз577495 0.0 1023783
09:00−9сз687093 0.0 1025913
12:00−7сз575786 0.0 10261065
15:00−6сз575147 0.0 10261080
18:00−8ссз46545 0.0 10261023
21:00−9ссз46582 0.0 1027842
11 марта, чт
чт1100:00−12св56752 0.0 1028476
03:00−15ссв467411 0.0 1030420
06:00−16ссв45720 0.0 1031410
09:00−15св34590 0.0 1032489
12:00−11ссв34470 0.0 1032675
15:00−9ссв34460 0.0 1032909
18:00−10ссв34530 0.0 1032793
21:00−10всв23610 0.0 1033386
12 марта, пт
пт1200:00−11всв11670 0.0 1034178
03:00−12всв12730 0.0 1033120
06:00−12в11770 0.0 103455
09:00−10ююв33580 0.0 1035464
12:00−6ю45371 0.0 1034850
15:00−4ю463246 0.0 10321034
18:00−5ю4736100 0.0 1031565
21:00−5ю4104199 0.0 1030606